[[[{"header":{"parameterUnit":"kt","parameterCategory":2,"dx":1,"dy":1,"la1":30.253999710083008,"la2":30.299108505249023,"lo1":-89.0895004272461,"lo2":-89.04439544677734,"nx":28,"ny":28,"refTime":"2022-09-23T21:00:00:Z","depth":0,"parameterNumber":1,"parameterNumberName":"U-component_of_WINDS"},"data":[-2.0377,-2.0357,-2.0341,-2.0311,-2.0291,-2.0268,-2.0254,-2.0235,-2.0215,-2.0185,-2.0165,-2.0146,-2.0121,-2.0092,-2.007,-2.0062,-2.0054,-2.0058,-2.0048,-2.0044,-2.0042,-2.0041,-2.0045,-2.0056,-2.0056,-2.0055,-2.0055,-2.0055,-2.0374,-2.0355,-2.0334,-2.0304,-2.0286,-2.0272,-2.0246,-2.0232,-2.0211,-2.0187,-2.0167,-2.0139,-2.0115,-2.0087,-2.0061,-2.0051,-2.0043,-2.0045,-2.0046,-2.0042,-2.0037,-2.0041,-2.0052,-2.0052,-2.0052,-2.0052,-2.0052,-2.0052,-2.0365,-2.0354,-2.0326,-2.0304,-2.0284,-2.0263,-2.025,-2.0228,-2.0207,-2.0178,-2.0163,-2.014,-2.0113,-2.0074,-2.0057,-2.0038,-2.0033,-2.003,-2.0029,-2.0029,-2.0031,-2.0035,-2.0033,-2.0033,-2.0032,-2.0032,-2.0032,0,-2.0354,-2.0341,-2.0321,-2.0295,-2.0278,-2.0257,-2.0234,-2.0225,-2.0194,-2.0178,-2.0154,-2.0138,-2.0105,-2.0081,-2.0053,-2.0036,-2.0021,-2.0017,-2.0015,-2.0023,-2.0032,-2.0027,-2.0019,-2.0018,-2.0018,-2.0017,-2.0017,-2.0017,-2.0344,-2.0332,-2.0296,-2.0283,-2.0268,-2.0248,-2.0233,-2.0206,-2.0191,-2.016,-2.0151,-2.0126,-2.0105,-2.007,-2.0044,-2.002,-2.0012,-2.0014,-2.0009,-2.0016,-2.0012,-2.0013,-2.0012,-2.0015,-2.0016,-2.0016,-2.0016,0,-2.0339,-2.0314,-2.0291,-2.0256,-2.0247,-2.0237,-2.0207,-2.0194,-2.0174,-2.0154,-2.0148,-2.0117,-2.0094,-2.0069,-2.0037,-2.0025,-2.0006,-1.9999,-2.0015,-2.0013,-2.0011,-2.0012,-2.001,-2.0009,-1.9997,-1.9997,-1.9997,0,-2.0321,-2.0307,-2.027,-2.0258,-2.0242,-2.0215,-2.02,-2.0181,-2.0158,-2.0142,-2.012,-2.0105,-2.0075,-2.0057,-2.0038,-2.0018,-2.0013,-2.0002,-1.9997,-2.0004,-2.0005,-1.9996,-1.9996,-1.9987,-1.9987,-1.9987,-1.9987,0,-2.0317,-2.0281,-2.0262,-2.025,-2.0212,-2.0203,-2.0187,-2.016,-2.0146,-2.0123,-2.0114,-2.0089,-2.0076,-2.0057,-2.0033,-2.0031,-2.0009,-2.0001,-1.9998,-1.9999,-1.9995,-1.9996,-2.0,-1.9987,-1.9987,-1.9987,-1.9987,0,-2.0299,-2.0277,-2.0253,-2.022,-2.0212,-2.0199,-2.0173,-2.0157,-2.013,-2.0118,-2.01,-2.0082,-2.0063,-2.0057,-2.003,-2.0034,-2.0022,-2.001,-2.0009,-2.0006,-2.0,-2.0007,-2.0014,-2.0014,-2.0003,-2.0003,-2.0003,0,-2.0302,-2.0271,-2.0248,-2.0226,-2.0208,-2.0185,-2.017,-2.0148,-2.013,-2.0112,-2.0092,-2.0072,-2.0062,-2.0052,-2.0042,-2.0021,-2.0016,-2.0021,-1.9996,-1.9995,-2.0003,-2.0009,-2.0017,-2.0015,-2.0005,-2.0005,-2.0005,0,-2.0301,-2.0255,-2.0253,-2.0238,-2.0204,-2.0189,-2.0173,-2.0147,-2.0136,-2.0114,-2.0099,-2.007,-2.0061,-2.0045,-2.0029,-2.002,-2.0019,-2.0012,-2.0011,-2.0014,-2.0003,-2.0011,-2.001,-2.001,-2.0009,-2.0009,-2.0006,0,-2.0279,-2.0261,-2.0253,-2.0221,-2.0206,-2.0191,-2.0164,-2.0151,-2.0136,-2.0118,-2.0096,-2.0071,-2.0045,-2.0038,-2.0024,-2.0012,-2.001,-2.0001,-1.9994,-1.9998,-1.9996,-1.9995,-1.9998,-1.9998,-1.9998,-1.9997,0,0,-2.0288,-2.0261,-2.0237,-2.022,-2.0206,-2.0182,-2.0168,-2.0152,-2.0118,-2.0108,-2.0104,-2.006,-2.004,-2.0016,-2.0016,-2.0005,-2.0001,-2.0,-1.9996,-1.9996,-1.9996,-1.9994,-1.9994,-1.9997,-1.9997,-1.9997,-1.9997,0,-2.0275,-2.0256,-2.0242,-2.0224,-2.0195,-2.0176,-2.0173,-2.0141,-2.0129,-2.0107,-2.0088,-2.0072,-2.0038,-2.0019,-2.0005,-2.0002,-1.9989,-1.9996,-2.0004,-1.9994,-1.9994,-1.9994,-1.9993,-1.9993,-1.9996,-1.9996,-1.9996,0,-2.027,-2.0246,-2.0237,-2.0203,-2.0184,-2.0167,-2.0152,-2.0134,-2.0121,-2.0097,-2.0076,-2.0058,-2.0031,-2.0012,-2.0003,-1.9998,-1.998,-1.9981,-1.9983,-1.9981,-1.997,-1.9971,-1.9971,-1.9965,-1.9965,-1.9965,0,0,-2.0262,-2.0245,-2.0211,-2.0198,-2.0188,-2.016,-2.0148,-2.0132,-2.0109,-2.0099,-2.0077,-2.0055,-2.0034,-2.0022,-2.0001,-1.9984,-1.9977,-1.9979,-1.998,-1.9981,-1.9981,-1.997,-1.997,-1.9965,-1.9965,-1.9965,0,0,-2.0258,-2.0219,-2.0209,-2.019,-2.0168,-2.0135,-2.0128,-2.0114,-2.0093,-2.0092,-2.0065,-2.0058,-2.004,-2.0024,-2.0027,-1.9998,-1.9991,-1.999,-2.0009,-2.0011,-2.0012,-2.0017,-2.0009,0,0,0,0,0,-2.0231,-2.0224,-2.0215,-2.0208,-2.0165,-2.014,-2.0134,-2.0112,-2.0107,-2.0102,-2.0081,-2.0068,-2.002,-2.0022,-2.0015,-2.0012,-1.9965,-1.9965,-1.9965,-1.9986,-1.9988,-1.999,0,0,0,0,0,0,-2.0228,-2.022,-2.0215,-2.0181,-2.0171,-2.014,-2.0127,-2.0121,-2.0107,-2.0105,-2.0072,-2.0067,-2.0047,-2.0024,-2.0018,-2.0016,-2.0011,-1.9965,-1.9965,-1.9965,-1.9987,-1.9988,-1.999,0,0,0,0,0,-2.0226,-2.0219,-2.0156,-2.0181,-2.0173,-2.0141,-2.0127,-2.0122,-2.0111,-2.0078,-2.0073,-2.0095,-2.0048,-2.0041,-2.002,-2.0019,-2.0014,-2.0012,-1.9965,-1.9965,-1.9965,-1.9988,0,0,0,0,0,0,-2.0224,-2.0213,-2.0154,-2.015,-2.0182,-2.0142,-2.0135,-2.0123,-2.0085,-2.0079,-2.01,-2.0099,-2.0048,-2.0043,-2.0038,-2.0021,-2.0017,-2.0015,-2.0014,-1.9965,-1.9965,-1.9965,0,0,0,0,0,0,-2.0217,-2.0211,-2.0152,-2.0155,-2.0151,-2.0144,-2.0137,-2.0117,-2.0085,-2.0109,-2.0106,-2.01,-2.0055,-2.0044,-2.004,-2.0009,-2.002,-2.0018,-2.0016,-2.0016,-1.9965,-1.9965,0,0,0,0,0,0,-2.0214,-2.0208,-2.0156,-2.0153,-2.015,-2.011,-2.0125,-2.0082,-2.0087,-2.0111,-2.0087,-2.0087,-2.0056,-2.0052,-2.0042,-2.0012,-2.001,-2.002,-2.0018,-2.0017,-2.0017,0,0,0,0,0,0,0,-2.0211,-2.0253,-2.0174,-2.0151,-2.0149,-2.0118,-2.0117,-2.0116,-2.0087,-2.0087,-2.0087,-2.0087,-2.0031,-2.0029,-2.0027,-2.0015,0,0,-2.002,-2.0019,0,0,0,0,0,0,0,0,-2.0255,-2.0253,-2.0174,-2.0174,-2.0173,-2.0118,-2.0117,-2.0117,-2.0087,-2.0087,-2.0087,-2.0087,-2.003,-2.0029,-2.0027,0,0,0,0,0,0,0,0,0,0,0,0,0,0,0,-2.0174,-2.0174,0,-2.0118,-2.0117,-2.0117,-2.0087,-2.0087,-2.0087,-2.0087,-2.003,-2.0028,-2.0027,0,0,0,0,0,0,0,0,0,0,0,0,0,0,0,0,0,0,0,0,0,0,0,0,0,0,0,0,0,0,0,0,0,0,0,0,0,0,0,0,0,0,0,0,0,0,0,0,0,0,0,0,0,0,0,0,0,0,0,0,0,0,0,0,0,0,0,0,0]}],[{"header":{"parameterUnit":"kt","parameterCategory":2,"dx":1,"dy":1,"la1":30.253999710083008,"la2":30.299108505249023,"lo1":-89.0895004272461,"lo2":-89.04439544677734,"nx":28,"ny":28,"refTime":"2022-09-23T21:00:00:Z","depth":0,"parameterNumber":2,"parameterNumberName":"V-component_of_WINDS"},"data":[-2.0896,-2.0985,-2.1059,-2.1193,-2.1283,-2.1388,-2.1449,-2.1536,-2.1624,-2.1758,-2.1848,-2.1932,-2.205,-2.2175,-2.2277,-2.2312,-2.235,-2.2326,-2.2372,-2.2412,-2.2423,-2.2433,-2.2417,-2.2333,-2.2333,-2.2321,-2.2321,-2.2321,-2.0916,-2.1005,-2.1098,-2.1239,-2.132,-2.1387,-2.1505,-2.1568,-2.166,-2.1769,-2.1863,-2.1986,-2.2094,-2.2224,-2.234,-2.2383,-2.2422,-2.2409,-2.2408,-2.2426,-2.2471,-2.2453,-2.2375,-2.2375,-2.2375,-2.2375,-2.2375,-2.2375,-2.0971,-2.1021,-2.1151,-2.1253,-2.1345,-2.1439,-2.1499,-2.1603,-2.1695,-2.1826,-2.1898,-2.2004,-2.2129,-2.2307,-2.2386,-2.2471,-2.25,-2.2509,-2.2512,-2.2513,-2.2503,-2.251,-2.2494,-2.2495,-2.2495,-2.2496,-2.2496,0,-2.1035,-2.1095,-2.1191,-2.1308,-2.1387,-2.1485,-2.1589,-2.1628,-2.1782,-2.1852,-2.196,-2.2035,-2.2183,-2.2293,-2.242,-2.2502,-2.2581,-2.2598,-2.2605,-2.2572,-2.2525,-2.2552,-2.2621,-2.2598,-2.2599,-2.26,-2.2601,-2.2601,-2.1098,-2.1147,-2.1321,-2.1377,-2.1453,-2.1543,-2.1612,-2.1744,-2.1812,-2.1959,-2.1996,-2.2109,-2.2206,-2.2367,-2.2489,-2.26,-2.264,-2.2623,-2.2658,-2.2623,-2.2642,-2.2638,-2.2644,-2.2614,-2.2612,-2.2611,-2.261,0,-2.1125,-2.125,-2.1352,-2.152,-2.1564,-2.1609,-2.1753,-2.1809,-2.1905,-2.1995,-2.2023,-2.2174,-2.2278,-2.2404,-2.2549,-2.2612,-2.2687,-2.2723,-2.2645,-2.2659,-2.2657,-2.2656,-2.2628,-2.2632,-2.2719,-2.2718,-2.2717,0,-2.1228,-2.1289,-2.1472,-2.1525,-2.1596,-2.1729,-2.1796,-2.1886,-2.1997,-2.207,-2.218,-2.2246,-2.2398,-2.2481,-2.2575,-2.2659,-2.2686,-2.274,-2.2764,-2.2731,-2.2724,-2.277,-2.2774,-2.2816,-2.2816,-2.2816,-2.2816,0,-2.126,-2.143,-2.1516,-2.1575,-2.1762,-2.1799,-2.1878,-2.2005,-2.2072,-2.2179,-2.2225,-2.2339,-2.2403,-2.2489,-2.2608,-2.2627,-2.2714,-2.2765,-2.277,-2.2766,-2.2784,-2.2781,-2.2724,-2.2816,-2.2817,-2.2817,-2.2817,0,-2.1364,-2.1471,-2.1577,-2.1735,-2.1775,-2.1831,-2.1955,-2.2033,-2.2158,-2.2222,-2.2307,-2.2397,-2.2482,-2.2523,-2.2641,-2.2632,-2.2688,-2.2747,-2.275,-2.2767,-2.281,-2.2761,-2.2693,-2.2691,-2.2779,-2.2779,-2.2779,0,-2.1366,-2.1508,-2.1625,-2.1723,-2.1806,-2.1927,-2.1992,-2.2101,-2.2191,-2.2275,-2.2374,-2.2469,-2.2526,-2.2574,-2.2616,-2.2723,-2.2734,-2.2725,-2.2844,-2.2846,-2.2807,-2.2745,-2.2704,-2.2693,-2.2777,-2.2777,-2.2777,0,-2.1385,-2.1613,-2.1623,-2.1697,-2.1863,-2.1934,-2.2008,-2.2133,-2.2182,-2.2292,-2.2359,-2.2494,-2.2544,-2.2621,-2.2708,-2.2744,-2.273,-2.2793,-2.2798,-2.2778,-2.2786,-2.2747,-2.2744,-2.278,-2.278,-2.2781,-2.2775,0,-2.1514,-2.1602,-2.1633,-2.1793,-2.1867,-2.1936,-2.2074,-2.2135,-2.2211,-2.2305,-2.2405,-2.253,-2.2656,-2.2687,-2.2762,-2.2805,-2.2819,-2.2871,-2.2922,-2.2879,-2.2881,-2.2882,-2.2908,-2.291,-2.2912,-2.2913,0,0,-2.1486,-2.1616,-2.1743,-2.1822,-2.1894,-2.202,-2.2082,-2.2166,-2.2333,-2.2379,-2.2409,-2.2618,-2.2718,-2.2825,-2.2823,-2.2873,-2.2894,-2.2904,-2.2898,-2.2896,-2.2894,-2.2894,-2.2892,-2.2917,-2.2918,-2.2918,-2.2919,0,-2.1563,-2.1663,-2.1723,-2.1816,-2.1959,-2.2057,-2.2071,-2.2235,-2.2299,-2.2399,-2.2502,-2.2579,-2.2743,-2.2835,-2.2904,-2.2894,-2.2969,-2.2922,-2.2871,-2.2913,-2.2908,-2.2904,-2.2902,-2.2899,-2.2924,-2.2923,-2.2923,0,-2.1607,-2.1728,-2.1772,-2.1941,-2.2037,-2.212,-2.2207,-2.2291,-2.2354,-2.249,-2.2587,-2.2675,-2.281,-2.2894,-2.2936,-2.2965,-2.3028,-2.3033,-2.3025,-2.3033,-2.3081,-2.3074,-2.3069,-2.3141,-2.3141,-2.3141,0,0,-2.1654,-2.1738,-2.1911,-2.1969,-2.2021,-2.2169,-2.2227,-2.231,-2.243,-2.2477,-2.2592,-2.2705,-2.2802,-2.2863,-2.2961,-2.3033,-2.3073,-2.3054,-2.3044,-2.3035,-2.3038,-2.3083,-2.3077,-2.3142,-2.3142,-2.3142,0,0,-2.1678,-2.1881,-2.1938,-2.2022,-2.2132,-2.2307,-2.2337,-2.241,-2.2514,-2.2521,-2.2666,-2.2702,-2.2783,-2.2865,-2.2859,-2.2982,-2.303,-2.3034,-2.2926,-2.2915,-2.2905,-2.2884,-2.2967,0,0,0,0,0,-2.1829,-2.1856,-2.1905,-2.194,-2.2156,-2.2279,-2.2308,-2.2428,-2.2459,-2.248,-2.2588,-2.2665,-2.2892,-2.2889,-2.2921,-2.2928,-2.3151,-2.3149,-2.3148,-2.3025,-2.3013,-2.3002,0,0,0,0,0,0,-2.1844,-2.1886,-2.1905,-2.2079,-2.2129,-2.228,-2.2359,-2.2393,-2.246,-2.2473,-2.2641,-2.267,-2.2775,-2.2881,-2.2908,-2.2912,-2.2958,-2.315,-2.3149,-2.3147,-2.3021,-2.301,-2.3001,0,0,0,0,0,-2.1856,-2.189,-2.2205,-2.2079,-2.2123,-2.2289,-2.2359,-2.2388,-2.2442,-2.261,-2.2641,-2.2527,-2.2771,-2.2803,-2.2898,-2.2897,-2.294,-2.2949,-2.3149,-2.3148,-2.3147,-2.3016,0,0,0,0,0,0,-2.1865,-2.1918,-2.2216,-2.2234,-2.2079,-2.2283,-2.2319,-2.2383,-2.2578,-2.2608,-2.2503,-2.2511,-2.277,-2.2794,-2.2818,-2.2884,-2.2925,-2.2935,-2.2941,-2.3148,-2.3148,-2.3147,0,0,0,0,0,0,-2.19,-2.1931,-2.2225,-2.2218,-2.2236,-2.2277,-2.2309,-2.2407,-2.2578,-2.246,-2.2473,-2.2505,-2.2734,-2.2788,-2.2807,-2.2956,-2.2914,-2.2923,-2.293,-2.2934,-2.3148,-2.3147,0,0,0,0,0,0,-2.1916,-2.1943,-2.2214,-2.2228,-2.2244,-2.245,-2.2366,-2.258,-2.2571,-2.2449,-2.2574,-2.2575,-2.2726,-2.2748,-2.2799,-2.2939,-2.2951,-2.2914,-2.2921,-2.2925,-2.2928,0,0,0,0,0,0,0,-2.1928,-2.1718,-2.2111,-2.2236,-2.225,-2.2397,-2.2401,-2.2406,-2.2572,-2.2573,-2.2574,-2.2575,-2.286,-2.287,-2.2881,-2.2925,0,0,-2.2913,-2.2918,0,0,0,0,0,0,0,0,-2.1709,-2.1716,-2.2112,-2.2116,-2.2119,-2.2397,-2.2401,-2.2405,-2.2572,-2.2573,-2.2573,-2.2574,-2.2863,-2.2871,-2.2879,0,0,0,0,0,0,0,0,0,0,0,0,0,0,0,-2.2112,-2.2115,0,-2.2398,-2.2401,-2.2404,-2.2572,-2.2573,-2.2573,-2.2574,-2.2865,-2.2872,-2.2879,0,0,0,0,0,0,0,0,0,0,0,0,0,0,0,0,0,0,0,0,0,0,0,0,0,0,0,0,0,0,0,0,0,0,0,0,0,0,0,0,0,0,0,0,0,0,0,0,0,0,0,0,0,0,0,0,0,0,0,0,0,0,0,0,0,0,0,0,0]}]]]